Torna al catalogo

TKSAT 1

AttivoComunicazioniGEO
NORAD 39481·PAYLOAD·🇧🇴 Bolivia

Lanciato Dec 20, 2013 da Xichang Satellite Launch Center

Loading…

TLE

AggiornatoSource: Space-Track

Epoca: Sep 14, 2026, 13:23 UTC

1 39481U 13075A   26257.55789749 -.00000203  00000-0  00000-0 0  9993
2 39481   0.0180 347.6143 0002150 166.9061 312.6555  1.00273303 46502

Traccia TKSAT 1 in tempo reale con AllMySat

Download on the App Store